LIMFLIME

Guest
Details From LIMF - Torino Caselle
To LIME - Bergamo Orio Al Serio
Flight Number -
Tags decoded
Created
Modified
Stats Distance 91 nm / 169 km
Max Altitude 0 ft / 0 m
Waypoints 2
Social Downloads 0
Likes 0
Share VATSIM

Download

Looking for another format? Having issues loading an existing format? Contact us
Advertisement - Login to hide

Notes

Requested: LIMF LIME

Route

LIMF LIME

ID Type Via Altitude Latitude Longitude Leg Dist Tot Dist Heading (true) Name
O LIMF APT - 0 ft / 0 m 45.20076˚ 7.64963˚ - 0 nm - Torino Caselle
O LIME APT - 0 ft / 0 m 45.67200˚ 9.70689˚ 91 nm 91 nm 71° / 73° Bergamo Orio Al Serio

Altitude Profile

Advertisement - Login to hide

LIMF

Details ICAO LIMF (TRN)
Name Torino Caselle
Region Italy
Timezone Europe/Rome (UTC+2.0)
Stats Elevation 989 ft / 301 m (AMSL)
Location 45.200763° 7.649630°
Runways 1
Magnetic Variation 2.172° E

METAR

LIMF 201350Z 36005KT 320V080 9999 FEW025 SCT060 20/11 Q1017

Decode

TAF

TAF LIMF 201100Z 2012/2112 VRB05KT 7000 BKN050 TEMPO 2012/2024 4000 TSRA

Decode

Departure Runways

ID Width Length Bearing (true) Bearing (mag) Surface Threshold Offset Overrun Length
18 197 ft / 60 m 10,835 ft / 3,303 m 182.56° 180.39° Asphalt 2,378 ft / 725 m 970 ft / 296 m
36 197 ft / 60 m 10,835 ft / 3,303 m 2.56° 0.39° Asphalt 1,148 ft / 350 m 0 ft / 0 m

LIME

Details ICAO LIME (BGY)
Name Bergamo Orio Al Serio
Region Italy
Timezone Europe/Rome (UTC+2.0)
Stats Elevation 779 ft / 237 m (AMSL)
Location 45.672004° 9.706892°
Runways 2
Magnetic Variation 2.653° E

METAR

LIME 201350Z 16007KT 120V200 9999 SCT040TCU BKN050 22/11 Q1015 NOSIG

Decode

TAF

TAF LIME 201100Z 2012/2112 VRB05KT 9999 SCT050 TEMPO 2012/2018 4000 TSRA

Decode

Destination Runways

ID Width Length Bearing (true) Bearing (mag) Surface Threshold Offset Overrun Length
10 148 ft / 45 m 9,897 ft / 3,017 m 104.89° 102.24° Asphalt 312 ft / 95 m 0 ft / 0 m
12 59 ft / 18 m 2,665 ft / 812 m 121.47° 118.82° Asphalt 197 ft / 60 m 0 ft / 0 m
28 148 ft / 45 m 9,897 ft / 3,017 m 284.91° 282.26° Asphalt 712 ft / 217 m 0 ft / 0 m
30 59 ft / 18 m 2,665 ft / 812 m 301.48° 298.83° Asphalt 312 ft / 95 m 0 ft / 0 m

Approach Navaids

Runway Type Ident Frequency Range Bearing (true) Bearing (mag) Slope Elevation
28 Localiser BRM 108.70 MHz 18 nm / 33 km 285.08° 282.43° - 779 ft / 237 m (AMSL)
28 Glidescope BRM 108.70 MHz 10 nm / 19 km 284.90° 282.25° 3.00° 779 ft / 237 m (AMSL)
28 DME BRM 108.70 MHz 18 nm / 33 km - - - 779 ft / 237 m (AMSL)

Popular Alternatives